Location: White Mills Observatory
(37.5374°N, 86.0303°W)
Time: 21:35:06
(UTC-04:00)

Amateur Radio Satellites - All Passes

Search period start: 21 October 2014 21:05
Search period end: 22 October 2014 21:05
Location: White Mills Observatory, 37.5374°N, 86.0303°W

Satellite Date Start Highest point End Downlink Frequencies (MHz)
Time Altitude Azimuth
Oscar 11 21 Oct 21:33:30 21:35:44 14° 66° (ENE) 21:37:58 145.825 FM, Beacon 2401.500 USB
KITSAT 1 21 Oct 21:40:58 21:47:34 27° 44° (NE) 21:54:07 435.175 FM
ISS 21 Oct 22:06:24 22:09:42 63° 223° (SW) 22:13:00 145.800 FM
ZACube-1 21 Oct 22:12:06 22:15:02 17° 67° (ENE) 22:17:58 437.345 MHz
STRAND 1 21 Oct 22:21:22 22:22:53 11° 300° (WNW) 22:24:25 ?
UKube-1 21 Oct 22:22:27 22:26:43 58° 74° (ENE) 22:31:00 145.840 MHz, 145.915 MHz
HO-68 21 Oct 22:52:20 22:58:47 36° 262° (W) 23:05:18 435.675 MHz FM
FUNcube-1 21 Oct 22:55:56 23:00:22 49° 74° (ENE) 23:04:47 145.950 - 145.970 MHz USB
SO-50 21 Oct 23:00:34 23:04:52 31° 51° (NE) 23:09:11 436.795 FM
Oscar 11 21 Oct 23:07:17 23:11:29 48° 261° (W) 23:15:41 145.825 FM, Beacon 2401.500 USB
RS-15 21 Oct 23:23:26 23:34:14 63° 113° (ESE) 23:44:54 29.354 - 29.394 USB, Beacon 29.352 USB
KITSAT 1 21 Oct 23:35:40 23:43:43 75° 245° (WSW) 23:51:44 435.175 FM
ZACube-1 21 Oct 23:46:39 23:51:03 44° 261° (W) 23:55:27 437.345 MHz
UKube-1 22 Oct 00:02:13 00:03:14 11° 269° (W) 00:04:15 145.840 MHz, 145.915 MHz
FUNcube-1 22 Oct 00:34:28 00:36:58 14° 268° (W) 00:39:27 145.950 - 145.970 MHz USB
SO-50 22 Oct 00:41:07 00:45:23 31° 247° (WSW) 00:49:39 436.795 FM
UOSAT-12 22 Oct 00:42:51 00:46:58 29° 51° (NE) 00:51:00 437.025 FM, 437.400 FM
MaSat-1 22 Oct 01:06:24 01:10:37 52° 111° (ESE) 01:14:29 437.345 MHz
KITSAT 1 22 Oct 01:35:15 01:37:43 12° 261° (W) 01:40:11 435.175 FM
RS-15 22 Oct 01:37:10 01:47:08 38° 316° (NW) 01:57:08 29.354 - 29.394 USB, Beacon 29.352 USB
Oscar 16 22 Oct 02:00:08 02:02:11 12° 91° (E) 02:04:14 437.025 USB, Beacon 2401.1428
AO-Echo 22 Oct 02:22:37 02:23:35 10° 89° (E) 02:24:33 ?
UOSAT-12 22 Oct 02:22:57 02:27:04 31° 247° (WSW) 02:31:06 437.025 FM, 437.400 FM
MaSat-1 22 Oct 02:44:29 02:46:31 13° 304° (NW) 02:48:29 437.345 MHz
JAS-1B 22 Oct 02:47:46 02:53:56 38° 99° (E) 03:01:08 435.800 - 435.900 CW/SSB
Oscar 19 22 Oct 02:51:50 02:56:41 42° 99° (E) 03:01:30 437.125 CW, 437.150 USB
AO-27 22 Oct 03:02:08 03:06:03 21° 94° (E) 03:09:56 436.795 MHz FM
Oscar 16 22 Oct 03:36:53 03:41:59 68° 286° (WNW) 03:47:02 437.025 USB, Beacon 2401.1428
Uribyol 2 22 Oct 03:50:34 03:55:46 67° 102° (ESE) 04:00:55 436.500 FM
ITAMSAT 1 22 Oct 03:55:44 04:00:58 71° 102° (ESE) 04:06:10 435.822 SSB
PCSat 22 Oct 03:56:48 03:57:34 10° 101° (ESE) 03:58:21 145.825 MHz
Gurwin Techsat 1B 22 Oct 03:56:58 04:01:52 37° 98° (E) 04:06:45 435.225 FM
AO-Echo 22 Oct 03:57:34 04:02:53 83° 284° (WNW) 04:08:12 ?
RS-15 22 Oct 03:58:02 04:04:01 16° 349° (N) 04:10:04 29.354 - 29.394 USB, Beacon 29.352 USB
TMSAT-1 22 Oct 04:10:20 04:15:13 36° 98° (E) 04:20:03 436.925 FM
Oscar 19 22 Oct 04:31:55 04:35:42 21° 294° (WNW) 04:39:29 437.125 CW, 437.150 USB
AO-7 22 Oct 04:36:16 04:41:33 18° 92° (E) 04:46:48 29.400 - 29.500 MHz
OPAL 22 Oct 04:38:06 04:40:33 14° 60° (ENE) 04:42:59 ?
JAS-1B 22 Oct 04:38:35 04:44:28 37° 291° (WNW) 04:51:19 435.800 - 435.900 CW/SSB
AO-27 22 Oct 04:40:47 04:45:42 42° 289° (WNW) 04:50:35 436.795 MHz FM
Sapphire 22 Oct 05:12:02 05:17:16 54° 113° (ESE) 05:22:33 437.095 MHz 1200 baud AX-25 AFSK
Uribyol 2 22 Oct 05:31:54 05:34:38 15° 298° (WNW) 05:37:21 436.500 FM
PCSat 22 Oct 05:34:44 05:40:09 87° 297° (WNW) 05:45:36 145.825 MHz
ITAMSAT 1 22 Oct 05:37:15 05:39:49 14° 298° (WNW) 05:42:23 435.822 SSB
Gurwin Techsat 1B 22 Oct 05:37:19 05:41:37 26° 293° (WNW) 05:45:54 435.225 FM
Uosat F 22 Oct 05:40:01 05:44:41 37° 98° (E) 05:49:19 435.120 FM
AO-Echo 22 Oct 05:40:27 05:40:47 10° 300° (WNW) 05:41:07 ?
TMSAT-1 22 Oct 05:50:36 05:54:55 26° 293° (WNW) 05:59:13 436.925 FM
JAS-2 22 Oct 06:12:09 06:18:38 28° 93° (E) 06:25:05 435.800 - 435.900 CW/SSB, 435.910 FM
OPAL 22 Oct 06:13:38 06:18:48 74° 255° (WSW) 06:23:56 ?
RS-15 22 Oct 06:14:46 06:22:38 21° 27° (NNE) 06:30:39 29.354 - 29.394 USB, Beacon 29.352 USB
STRAND 1 22 Oct 06:18:16 06:19:53 11° 61° (ENE) 06:21:31 ?
AO-7 22 Oct 06:26:47 06:35:08 84° 289° (WNW) 06:43:28 29.400 - 29.500 MHz
Sapphire 22 Oct 06:56:55 07:01:01 21° 310° (NW) 07:05:08 437.095 MHz 1200 baud AX-25 AFSK
Hamsat 22 Oct 07:16:23 07:20:28 50° 100° (E) 07:24:33 145.90 MHz
Uosat F 22 Oct 07:19:15 07:23:13 24° 294° (WNW) 07:27:11 435.120 FM
PCSat 22 Oct 07:21:41 07:24:21 14° 316° (NW) 07:27:03 145.825 MHz
STRAND 1 22 Oct 07:53:13 07:58:20 83° 257° (WSW) 08:03:30 ?
JAS-2 22 Oct 07:56:19 08:03:52 59° 289° (WNW) 08:11:30 435.800 - 435.900 CW/SSB, 435.910 FM
Saudisat 1A 22 Oct 08:15:11 08:18:17 19° 110° (ESE) 08:21:23 436.775 MHz
AO-7 22 Oct 08:21:37 08:26:42 18° 308° (NW) 08:31:48 29.400 - 29.500 MHz
RS-15 22 Oct 08:26:44 08:37:50 63° 55° (NE) 08:49:22 29.354 - 29.394 USB, Beacon 29.352 USB
Hamsat 22 Oct 08:54:12 08:55:57 12° 294° (WNW) 08:57:43 145.90 MHz
SO-67 22 Oct 09:01:07 09:04:32 62° 284° (WNW) 09:07:56 435.3500 MHz FM
PANSAT 22 Oct 09:02:47 09:03:37 11° 162° (SSE) 09:04:28 not established
JAS-2 22 Oct 09:45:24 09:47:22 11° 306° (NW) 09:49:22 435.800 - 435.900 CW/SSB, 435.910 FM
Saudisat 1A 22 Oct 09:53:26 09:57:33 39° 306° (NW) 10:01:42 436.775 MHz
UKube-1 22 Oct 10:14:54 10:16:22 11° 92° (E) 10:17:48 145.840 MHz, 145.915 MHz
HO-68 22 Oct 10:21:19 10:28:16 50° 101° (E) 10:35:09 435.675 MHz FM
RS-15 22 Oct 10:39:51 10:49:34 36° 254° (WSW) 10:59:42 29.354 - 29.394 USB, Beacon 29.352 USB
PANSAT 22 Oct 10:40:19 10:43:07 19° 174° (S) 10:45:56 not established
MaSat-1 22 Oct 10:55:14 10:57:48 48° 64° (ENE) 11:00:09 437.345 MHz
Oscar 11 22 Oct 10:56:55 11:00:50 33° 97° (E) 11:04:43 145.825 FM, Beacon 2401.500 USB
ZACube-1 22 Oct 11:38:03 11:42:04 39° 98° (E) 11:45:59 437.345 MHz
UKube-1 22 Oct 11:48:34 11:52:51 55° 286° (WNW) 11:57:06 145.840 MHz, 145.915 MHz
KITSAT 1 22 Oct 12:09:22 12:14:39 19° 102° (ESE) 12:19:55 435.175 FM
HO-68 22 Oct 12:09:34 12:15:37 31° 297° (WNW) 12:21:40 435.675 MHz FM
PANSAT 22 Oct 12:19:56 12:22:43 19° 187° (S) 12:25:29 not established
FUNcube-1 22 Oct 12:23:23 12:27:36 58° 285° (WNW) 12:31:41 145.950 - 145.970 MHz USB
Oscar 11 22 Oct 12:33:43 12:36:46 19° 292° (WNW) 12:39:48 145.825 FM, Beacon 2401.500 USB
ISS 22 Oct 13:12:56 13:13:59 11° 127° (SE) 13:15:01 145.800 FM
Oscar 16 22 Oct 13:14:57 13:18:08 17° 64° (ENE) 13:21:18 437.025 USB, Beacon 2401.1428
ZACube-1 22 Oct 13:15:32 13:18:06 16° 294° (WNW) 13:20:38 437.345 MHz
SO-50 22 Oct 13:15:58 13:18:04 13° 107° (ESE) 13:20:12 436.795 FM
JAS-1B 22 Oct 13:33:49 13:38:20 23° 65° (ENE) 13:42:38 435.800 - 435.900 CW/SSB
AO-Echo 22 Oct 13:34:06 13:35:26 11° 61° (ENE) 13:36:47 ?
ITAMSAT 1 22 Oct 13:37:41 13:38:18 10° 59° (ENE) 13:38:56 435.822 SSB
KITSAT 1 22 Oct 14:01:00 14:09:05 80° 299° (WNW) 14:17:13 435.175 FM
Sapphire 22 Oct 14:02:12 14:06:57 30° 53° (NE) 14:11:39 437.095 MHz 1200 baud AX-25 AFSK
Oscar 19 22 Oct 14:06:43 14:11:42 51° 72° (ENE) 14:16:40 437.125 CW, 437.150 USB
AO-27 22 Oct 14:18:22 14:22:41 27° 67° (ENE) 14:27:02 436.795 MHz FM
PCSat 22 Oct 14:24:45 14:30:01 49° 58° (ENE) 14:35:14 145.825 MHz
ISS 22 Oct 14:46:57 14:50:15 65° 322° (NW) 14:53:35 145.800 FM
Oscar 16 22 Oct 14:51:54 14:56:59 57° 259° (W) 15:02:04 437.025 USB, Beacon 2401.1428
Oscar 10/S400 22 Oct 14:52:26 15:11:05 45° 155° (SSE) 15:35:01 145.825 - 145.975 CW/USB, Beacon 145.810 USB
SO-50 22 Oct 14:53:39 14:58:03 57° 303° (WNW) 15:02:36 436.795 FM
UOSAT-12 22 Oct 14:54:40 14:56:30 12° 107° (ESE) 14:58:21 437.025 FM, 437.400 FM
Uribyol 2 22 Oct 15:06:24 15:11:37 83° 75° (ENE) 15:16:52 436.500 FM
AO-Echo 22 Oct 15:08:37 15:13:26 80° 257° (WSW) 15:18:27 ?
ITAMSAT 1 22 Oct 15:11:45 15:16:57 87° 76° (ENE) 15:22:13 435.822 SSB
Gurwin Techsat 1B 22 Oct 15:16:05 15:21:09 48° 72° (ENE) 15:26:15 435.225 FM
JAS-1B 22 Oct 15:22:53 15:28:47 44° 260° (W) 15:34:14 435.800 - 435.900 CW/SSB
TMSAT-1 22 Oct 15:29:06 15:34:09 47° 72° (ENE) 15:39:13 436.925 FM
AO-7 22 Oct 15:33:31 15:39:39 24° 56° (NE) 15:45:46 29.400 - 29.500 MHz
Sapphire 22 Oct 15:45:27 15:50:22 36° 250° (WSW) 15:55:16 437.095 MHz 1200 baud AX-25 AFSK
Oscar 19 22 Oct 15:47:57 15:51:17 17° 267° (W) 15:54:37 437.125 CW, 437.150 USB
AO-27 22 Oct 15:57:22 16:02:02 33° 263° (W) 16:06:45 436.795 MHz FM
KITSAT 1 22 Oct 16:00:10 16:05:47 20° 321° (NW) 16:11:26 435.175 FM
PCSat 22 Oct 16:09:06 16:13:01 21° 254° (WSW) 16:16:56 145.825 MHz
ISS 22 Oct 16:25:50 16:27:29 13° 340° (NNW) 16:29:09 145.800 FM
UOSAT-12 22 Oct 16:31:27 16:36:02 66° 302° (WNW) 16:40:44 437.025 FM, 437.400 FM
Saudisat 1A 22 Oct 16:44:09 16:45:45 12° 42° (NE) 16:47:22 436.775 MHz
Uosat F 22 Oct 16:51:21 16:56:03 42° 71° (ENE) 17:00:46 435.120 FM
Gurwin Techsat 1B 22 Oct 16:57:41 17:01:21 19° 267° (W) 17:05:02 435.225 FM
TMSAT-1 22 Oct 17:10:32 17:14:16 19° 267° (W) 17:18:02 436.925 FM
AO-7 22 Oct 17:23:19 17:31:35 76° 254° (WSW) 17:39:54 29.400 - 29.500 MHz
JAS-2 22 Oct 18:06:28 18:12:01 52° 70° (ENE) 18:18:18 435.800 - 435.900 CW/SSB, 435.910 FM
Hamsat 22 Oct 18:08:03 18:11:40 28° 71° (ENE) 18:15:16 145.90 MHz
Saudisat 1A 22 Oct 18:21:30 18:25:57 88° 240° (WSW) 18:30:21 436.775 MHz
OPAL 22 Oct 18:25:55 18:30:24 33° 99° (E) 18:34:49 ?
Uosat F 22 Oct 18:31:21 18:34:58 20° 266° (W) 18:38:38 435.120 FM
AO-7 22 Oct 19:22:46 19:25:32 12° 271° (W) 19:28:19 29.400 - 29.500 MHz
SO-67 22 Oct 19:32:01 19:34:57 27° 73° (ENE) 19:37:54 435.3500 MHz FM
ISS 22 Oct 19:41:44 19:43:26 13° 21° (NNE) 19:45:08 145.800 FM
Hamsat 22 Oct 19:44:24 19:47:35 21° 265° (W) 19:50:47 145.90 MHz
JAS-2 22 Oct 19:53:21 19:57:34 21° 270° (W) 20:02:08 435.800 - 435.900 CW/SSB, 435.910 FM
KITSAT 1 22 Oct 20:04:59 20:05:52 10° 24° (NNE) 20:06:46 435.175 FM
OPAL 22 Oct 20:05:04 20:09:06 26° 295° (WNW) 20:13:07 ?
STRAND 1 22 Oct 20:06:03 20:10:53 39° 98° (E) 20:15:39 ?
HO-68 22 Oct 20:48:21 20:54:24 31° 63° (ENE) 21:00:29 435.675 MHz FM
